TimeCDT,TemperatureF,Dew PointF,Humidity,Sea Level PressureIn,VisibilityMPH,Wind Direction,Wind SpeedMPH,Gust SpeedMPH,PrecipitationIn,Events,Conditions,WindDirDegrees,DateUTC
12:15 AM,64.8,26.1,23,29.67,10.0,Calm,Calm,-,N/A,,Clear,0,2014-05-06 05:15:00
12:35 AM,61.9,23.4,23,29.67,10.0,Calm,Calm,-,N/A,,Clear,0,2014-05-06 05:35:00
12:55 AM,60.6,22.6,23,29.66,10.0,Calm,Calm,-,N/A,,Clear,0,2014-05-06 05:55:00
1:15 AM,63.1,19.4,19,29.66,10.0,Calm,Calm,-,N/A,,Clear,0,2014-05-06 06:15:00
1:35 AM,61.5,22.3,22,29.65,10.0,Calm,Calm,-,N/A,,Clear,0,2014-05-06 06:35:00
1:55 AM,60.1,21.7,23,29.65,10.0,Calm,Calm,-,N/A,,Clear,0,2014-05-06 06:55:00
2:15 AM,58.5,25.9,29,29.64,10.0,Calm,Calm,-,N/A,,Clear,0,2014-05-06 07:15:00
2:35 AM,61.5,22.3,22,29.63,10.0,Calm,Calm,-,N/A,,Clear,0,2014-05-06 07:35:00
6:55 AM,52.3,31.6,45,29.63,10.0,Calm,Calm,-,N/A,,Clear,0,2014-05-06 11:55:00
7:15 AM,50.0,31.1,48,29.63,10.0,Calm,Calm,-,N/A,,Clear,0,2014-05-06 12:15:00
7:35 AM,52.9,35.2,51,29.63,7.0,NNE,3.5,-,N/A,,Clear,30,2014-05-06 12:35:00
7:55 AM,56.1,39.2,53,29.63,10.0,Calm,Calm,-,N/A,,Clear,0,2014-05-06 12:55:00
8:15 AM,58.3,35.8,43,29.65,10.0,NE,3.5,-,N/A,,Clear,50,2014-05-06 13:15:00
8:55 AM,73.6,25.5,17,29.65,10.0,WSW,10.4,-,N/A,,Clear,250,2014-05-06 13:55:00
9:15 AM,80.1,15.6,9,29.65,10.0,SW,12.7,17.3,N/A,,Clear,230,2014-05-06 14:15:00
9:35 AM,81.3,14.9,8,29.64,10.0,WSW,12.7,-,N/A,,Clear,250,2014-05-06 14:35:00
9:55 AM,82.8,13.6,7,29.64,10.0,WSW,15.0,-,N/A,,Clear,250,2014-05-06 14:55:00
10:15 AM,85.1,13.5,7,29.63,10.0,SW,13.8,19.6,N/A,,Clear,230,2014-05-06 15:15:00
10:35 AM,87.1,13.6,7,29.63,10.0,WSW,17.3,-,N/A,,Clear,240,2014-05-06 15:35:00
10:55 AM,89.4,12.6,6,29.63,10.0,WSW,19.6,26.5,N/A,,Clear,240,2014-05-06 15:55:00
11:15 AM,90.7,12.0,5,29.63,10.0,WSW,17.3,24.2,N/A,,Clear,250,2014-05-06 16:15:00
11:35 AM,91.9,11.7,5,29.63,10.0,WSW,15.0,21.9,N/A,,Clear,240,2014-05-06 16:35:00
11:55 AM,93.4,10.2,5,29.63,10.0,WSW,17.3,24.2,N/A,,Clear,250,2014-05-06 16:55:00
12:15 PM,94.5,10.4,4,29.63,10.0,WSW,16.1,21.9,N/A,,Clear,250,2014-05-06 17:15:00
12:35 PM,94.8,10.2,4,29.61,10.0,WSW,12.7,17.3,N/A,,Clear,240,2014-05-06 17:35:00
12:55 PM,95.4,7.9,4,29.61,10.0,WSW,20.7,28.8,N/A,,Clear,250,2014-05-06 17:55:00
1:15 PM,95.4,9.1,4,29.61,10.0,West,24.2,29.9,N/A,,Clear,260,2014-05-06 18:15:00
1:35 PM,95.9,8.8,4,29.60,10.0,WSW,16.1,27.6,N/A,,Clear,250,2014-05-06 18:35:00
1:55 PM,96.1,8.6,4,29.59,10.0,WSW,15.0,26.5,N/A,,Clear,250,2014-05-06 18:55:00
2:15 PM,95.0,9.7,4,29.58,10.0,SW,17.3,32.2,N/A,,Clear,220,2014-05-06 19:15:00
2:35 PM,95.9,9.5,4,29.57,10.0,WSW,19.6,29.9,N/A,,Clear,240,2014-05-06 19:35:00
3:15 PM,97.3,10.0,4,29.57,10.0,WSW,25.3,29.9,N/A,,Clear,250,2014-05-06 20:15:00
3:35 PM,95.4,9.9,4,29.56,10.0,WSW,24.2,34.5,N/A,,Clear,240,2014-05-06 20:35:00
3:55 PM,97.2,9.0,4,29.56,10.0,WSW,26.5,38.0,N/A,,Clear,240,2014-05-06 20:55:00
4:15 PM,97.2,9.9,4,29.55,10.0,West,20.7,39.1,N/A,,Clear,260,2014-05-06 21:15:00
4:35 PM,96.8,9.7,4,29.54,10.0,SSW,23.0,35.7,N/A,,Clear,210,2014-05-06 21:35:00
4:55 PM,96.8,9.5,4,29.54,10.0,SW,25.3,33.4,N/A,,Clear,230,2014-05-06 21:55:00
5:15 PM,96.8,9.9,4,29.54,10.0,SW,24.2,35.7,N/A,,Clear,220,2014-05-06 22:15:00
5:35 PM,96.3,8.8,4,29.54,10.0,SW,26.5,33.4,N/A,,Clear,230,2014-05-06 22:35:00
5:55 PM,95.9,9.7,4,29.54,10.0,SW,29.9,36.8,N/A,,Clear,230,2014-05-06 22:55:00
6:15 PM,95.4,9.7,4,29.54,10.0,SW,23.0,29.9,N/A,,Clear,230,2014-05-06 23:15:00
6:35 PM,95.4,10.8,4,29.53,10.0,SW,17.3,25.3,N/A,,Clear,230,2014-05-06 23:35:00
6:55 PM,94.8,11.8,5,29.53,10.0,SW,17.3,24.2,N/A,,Clear,220,2014-05-06 23:55:00
7:15 PM,93.4,10.8,5,29.52,10.0,SW,11.5,17.3,N/A,,Clear,230,2014-05-07 00:15:00
7:35 PM,93.2,12.2,5,29.52,10.0,SW,10.4,-,N/A,,Clear,220,2014-05-07 00:35:00
7:55 PM,91.8,13.8,6,29.52,10.0,SW,9.2,17.3,N/A,,Clear,220,2014-05-07 00:55:00
8:15 PM,90.5,12.6,6,29.53,10.0,SW,10.4,17.3,N/A,,Clear,230,2014-05-07 01:15:00
8:35 PM,86.5,13.1,6,29.53,10.0,SW,5.8,-,N/A,,Clear,220,2014-05-07 01:35:00
8:55 PM,81.0,14.7,8,29.54,10.0,South,8.1,-,N/A,,Clear,190,2014-05-07 01:55:00
9:15 PM,78.1,16.2,10,29.54,10.0,SSW,3.5,-,N/A,,Clear,210,2014-05-07 02:15:00
9:35 PM,81.3,13.8,8,29.55,10.0,SSW,11.5,-,N/A,,Clear,210,2014-05-07 02:35:00
9:55 PM,76.3,17.2,11,29.56,10.0,SSW,6.9,-,N/A,,Clear,210,2014-05-07 02:55:00
10:15 PM,79.0,15.4,9,29.56,10.0,SSW,8.1,-,N/A,,Clear,210,2014-05-07 03:15:00
10:55 PM,73.4,19.0,13,29.58,10.0,SW,3.5,-,N/A,,Clear,230,2014-05-07 03:55:00
11:15 PM,75.0,15.8,11,29.58,10.0,WSW,4.6,-,N/A,,Clear,250,2014-05-07 04:15:00
11:35 PM,77.7,9.9,8,29.58,10.0,SW,12.7,-,N/A,,Clear,220,2014-05-07 04:35:00
11:55 PM,77.7,9.7,7,29.58,10.0,SSW,12.7,18.4,N/A,,Clear,210,2014-05-07 04:55:00